Hourly Weather Roundup
Issued by NWS Central Illinois

Home | Current Version | Previous Version | Text Only | Print | Product List | Glossary On
Versions: 1 2 3 4 5 6 7 8 9 10 11 12 13 14 15 16 17 18 19 20 21 22 23 24 25 26 27 28 29 30 31 32 33 34 35 36 37 38 39 40 41 42 43 44 45 46 47 48 49 50
000
NZUS43 KILX 231110
HWRILX

Area Weather Roundup
National Weather Service Lincoln IL
600 AM CDT SAT SEP 23 2017

NOTE:  "FAIR" indicates few or no clouds below 12,000 feet, with
       no sigificant weather and/or obstructions to visibility.


CITY           SKY/WX    TMP DP  RH WIND       PRES   REMARKS
Bloomington    CLEAR     69  65  86 S6        30.07R
Champaign      CLEAR     67  64  90 CALM      30.07R
Danville       CLEAR     64  64  99 CALM      30.05R FOG
Decatur        CLEAR     65  63  93 E3        30.06R
Effingham      CLEAR     65  65 100 CALM      30.07S FOG
Flora          CLEAR     68  67  97 CALM      30.06R FOG
Galesburg      CLEAR     67  64  87 CALM      30.04S
Jacksonville   CLEAR     66  62  88 CALM      30.03S
Lacon          CLEAR     68  65  89 SE3       30.03S
Lawrenceville  CLEAR     66  66 100 NE3       30.06R FOG
Litchfield     CLEAR     68  65  92 CALM      30.05R
$$


CITY           SKY/WX    TMP DP  RH WIND       PRES   REMARKS
Lincoln        CLEAR     66  65  96 CALM      30.05R
Macomb         PTCLDY    61  60  96 CALM      30.05R
Mattoon        CLEAR     67  67 100 S3        30.06R
Mt Carmel AP   FOG       65  64  97 CALM      30.05S VSB 1/2
Olney-Noble AP CLEAR     66  64  93 CALM      30.06R FOG
Paris AP       CLEAR     65  65 100 CALM      30.08R FOG
Peoria         CLEAR     70  66  87 CALM      30.04R
Pontiac        CLEAR     66  66  98 CALM      30.07R
Rantoul        CLEAR     69  67  94 CALM      30.08R
Robinson       FOG       62  62 100 CALM      30.07R VSB 1/2
Springfield    CLEAR     71  66  84 S3        30.05R
Taylorville    CLEAR     67  65  92 CALM      30.05S
$$

...REGIONAL REPORTS...


CITY           SKY/WX    TMP DP  RH WIND       PRES   REMARKS
Chicago O`Hare PTCLDY    74  65  73 CALM      30.06R
Kankakee       CLEAR     66  65  97 CALM      30.08R
Moline         CLEAR     69  63  81 CALM      30.02R
Mount Sterling CLEAR     64  62  94 SE3       30.03R
Mount Vernon     N/A     63  63 100 CALM      30.05R
Pittsfield     CLEAR     66  63  88 CALM      30.04S
Quincy         CLEAR     68  62  81 SE6       30.02R
Rockford       CLEAR     68  64  87 CALM      30.06R
$$


CITY           SKY/WX    TMP DP  RH WIND       PRES   REMARKS
Burlington     CLEAR     67  64  90 S3        30.02R
Cedar Rapids     N/A     67  63  87 SE5       30.00S
Des Moines     CLEAR     72  67  84 S5        29.97R
Kirksville     CLEAR     68  64  87 S3        30.02R
Ottumwa        CLEAR     68  64  87 S6        30.00R
St Louis       CLEAR     71  66  84 CALM      30.04R
$$


CITY           SKY/WX    TMP DP  RH WIND       PRES   REMARKS
Terre Haute    CLEAR     65  63  93 CALM      30.07R FOG
Evansville     CLEAR     67  65  93 CALM      30.06R FOG
Indianapolis   PTCLDY    70  66  87 CALM      30.09R
Lafayette      CLEAR     66  66 100 CALM      30.07R FOG
Madison        PTCLDY    69  64  84 CALM      30.04R
Milwaukee      PTCLDY    76  66  71 SW8       30.05R
$$






USA.gov is the U.S. government's official web portal to all federal, state and local government web resources and services.